| time (UTC) | temp F | wind direction | speed MPH | gust MPH | rain 1hr in | rain 24hr in | rain mn in | humidity % | barometer mb |
| 20260504204458 | 71 | 288 | 5.0 | 12.0 | 0.00 | 0.00 | 0.00 | 39 | 1009.3 |
| 20260504202959 | 71 | 340 | 5.0 | 16.0 | 0.00 | 0.00 | 0.00 | 40 | 1009.2 |
| 20260504195958 | 70 | 263 | 5.0 | 11.0 | 0.00 | 0.00 | 0.00 | 39 | 1009.4 |
| 20260504190000 | 69 | 327 | 6.0 | 16.0 | 0.00 | 0.00 | 0.00 | 38 | 1009.9 |
| 20260504184458 | 68 | 306 | 6.0 | 20.0 | 0.00 | 0.00 | 0.00 | 40 | 1010.0 |
| 20260504182958 | 68 | 298 | 5.0 | 15.0 | 0.00 | 0.00 | 0.00 | 40 | 1010.1 |
| 20260504181458 | 68 | 359 | 4.0 | 13.0 | 0.00 | 0.00 | 0.00 | 41 | 1010.4 |
| 20260504175959 | 68 | 117 | 5.0 | 13.0 | 0.00 | 0.00 | 0.00 | 41 | 1010.7 |
| 20260504174458 | 67 | 281 | 6.0 | 16.0 | 0.00 | 0.00 | 0.00 | 38 | 1010.8 |
| 20260504172959 | 67 | 264 | 6.0 | 13.0 | 0.00 | 0.00 | 0.00 | 39 | 1011.0 |
| 20260504171458 | 66 | 314 | 6.0 | 12.0 | 0.00 | 0.00 | 0.00 | 40 | 1011.1 |
| 20260504081456 | 44 | 285 | 0.0 | 0.0 | 0.00 | 0.00 | 0.00 | 63 | 1013.4 |
| 20260504050000 | 46 | 309 | 0.0 | 1.0 | 0.00 | 0.00 | 0.00 | 58 | 1013.2 |
| 20260504044500 | 46 | 309 | 0.0 | 1.0 | 0.00 | 0.00 | 0.00 | 59 | 1013.1 |
| 20260504043000 | 46 | 259 | 1.0 | 3.0 | 0.00 | 0.00 | 0.00 | 58 | 1013.1 |
| 20260504041500 | 47 | 135 | 1.0 | 3.0 | 0.00 | 0.00 | 0.00 | 57 | 1013.0 |
| 20260504040004 | 47 | 271 | 1.0 | 4.0 | 0.00 | 0.00 | 0.00 | 57 | 1012.7 |
| 20260504034500 | 47 | 259 | 1.0 | 4.0 | 0.00 | 0.00 | 0.00 | 55 | 1012.6 |
| 20260504031501 | 50 | 293 | 1.0 | 4.0 | 0.00 | 0.00 | 0.00 | 52 | 1012.5 |
| 20260504025959 | 50 | 295 | 2.0 | 5.0 | 0.00 | 0.00 | 0.00 | 51 | 1012.4 |
| 20260504024459 | 50 | 326 | 3.0 | 6.0 | 0.00 | 0.00 | 0.00 | 51 | 1012.4 |
| 20260504022959 | 50 | 304 | 2.0 | 5.0 | 0.00 | 0.00 | 0.00 | 50 | 1012.4 |
| 20260504021459 | 50 | 290 | 2.0 | 5.0 | 0.00 | 0.00 | 0.00 | 50 | 1012.3 |
| 20260504015959 | 51 | 295 | 2.0 | 4.0 | 0.00 | 0.00 | 0.00 | 49 | 1012.4 |
| 20260504014458 | 51 | 304 | 3.0 | 6.0 | 0.00 | 0.00 | 0.00 | 48 | 1012.3 |
| 20260504012959 | 51 | 295 | 3.0 | 7.0 | 0.00 | 0.00 | 0.00 | 48 | 1012.3 |
| 20260504011459 | 51 | 302 | 2.0 | 5.0 | 0.00 | 0.00 | 0.00 | 49 | 1012.1 |
| 20260504005959 | 51 | 279 | 2.0 | 5.0 | 0.00 | 0.00 | 0.00 | 48 | 1011.9 |
| 20260504004459 | 51 | 302 | 2.0 | 4.0 | 0.00 | 0.00 | 0.00 | 48 | 1011.8 |
| 20260504002958 | 52 | 323 | 1.0 | 5.0 | 0.00 | 0.00 | 0.00 | 47 | 1011.5 |
| 20260504001458 | 53 | 305 | 2.0 | 6.0 | 0.00 | 0.00 | 0.00 | 46 | 1011.3 |
| 20260504000001 | 54 | 300 | 2.0 | 4.0 | 0.00 | 0.00 | 0.00 | 44 | 1011.2 |
| 20260503234459 | 55 | 291 | 2.0 | 5.0 | 0.00 | 0.00 | 0.00 | 42 | 1011.0 |
| 20260503232959 | 56 | 298 | 3.0 | 8.0 | 0.00 | 0.00 | 0.00 | 39 | 1010.9 |
| 20260503231500 | 56 | 321 | 3.0 | 9.0 | 0.00 | 0.00 | 0.00 | 40 | 1010.9 |
| 20260503225959 | 56 | 262 | 3.0 | 9.0 | 0.00 | 0.00 | 0.00 | 38 | 1010.9 |
| 20260503224459 | 57 | 275 | 7.0 | 13.0 | 0.00 | 0.00 | 0.00 | 35 | 1010.8 |
| 20260503222958 | 58 | 290 | 6.0 | 15.0 | 0.00 | 0.00 | 0.00 | 34 | 1010.7 |
| 20260503221459 | 58 | 290 | 7.0 | 19.0 | 0.00 | 0.00 | 0.00 | 35 | 1010.7 |
| 20260503215959 | 58 | 288 | 6.0 | 14.0 | 0.00 | 0.00 | 0.00 | 34 | 1010.5 |
| 20260503213000 | 58 | 278 | 5.0 | 14.0 | 0.00 | 0.00 | 0.00 | 33 | 1010.5 |
| 20260503211500 | 57 | 333 | 6.0 | 14.0 | 0.00 | 0.00 | 0.00 | 35 | 1010.5 |
| 20260503205959 | 57 | 279 | 7.0 | 17.0 | 0.00 | 0.00 | 0.00 | 34 | 1010.5 |